Regional Weather Roundup
Issued by NWS Little Rock, AR

Home | Current Version | Previous Version | Text Only | Print | Product List | Glossary On
Versions: 1 2 3 4 5 6 7 8 9 10 11 12 13 14 15 16 17 18 19 20 21 22 23 24 25 26 27
000
ASUS44 KLZK 252205
RWRLZK

WEATHER ROUNDUP FOR ARKANSAS
NATIONAL WEATHER SERVICE LITTLE ROCK AR
500 PM CDT SAT OCT 25 2014

NOTE: "FAIR" INDICATES FEW OR NO CLOUDS BELOW 12,000 FEET WITH NO
SIGNIFICANT WEATHER AND/OR OBSTRUCTIONS TO VISIBILITY.

ARZ001-003-010-029-252300-
NORTHWEST ARKANSAS

CITY           SKY/WX    TMP DP  RH WIND       PRES   REMARKS
FAYETTEVILLE   SUNNY     81  64  56 SW7       30.05F
FORT SMITH     SUNNY     86  61  42 SW3       30.02F HX  86
HARRISON       SUNNY     84  61  45 NW5       30.05S
BENTONVILLE    SUNNY     81  63  54 W7        30.06F
ROGERS         SUNNY     81  62  52 W6        30.06F
SILOAM SPGS    SUNNY     82  63  51 S7        30.06S
HIGHFILL       SUNNY     82  63  52 SW8       30.05S
SPRINGDALE     SUNNY     82  64  54 SW6       30.07F
$$

ARZ004-005-016-252300-
NORTH CENTRAL ARKANSAS

CITY           SKY/WX    TMP DP  RH WIND       PRES   REMARKS
BATESVILLE     SUNNY     88  64  45 CALM      30.00S HX  89
FLIPPIN        SUNNY     84  63  48 CALM      30.02F HX  85
MTN HOME       SUNNY     83  62  49 VRB3      30.01F
$$

ARZ040-041-252300-
WEST CENTRAL ARKANSAS

CITY           SKY/WX    TMP DP  RH WIND       PRES   REMARKS
MENA           SUNNY     84  64  51 CALM      30.07F HX  86
MOUNT IDA      SUNNY     83  64  52 CALM      30.03S
$$

ARZ009-017-025-026-028-252300-
NORTHEAST ARKANSAS

CITY           SKY/WX    TMP DP  RH WIND       PRES   REMARKS
CORNING        LGT RAIN  82  66  57 CALM      30.00S HX  85
JONESBORO      SUNNY     83  63  50 SW8       30.00S
NEWPORT        SUNNY     85  65  51 SW7       30.01S HX  86
WALNUT RIDGE   SUNNY     82  63  51 SW3       29.99S
BLYTHEVILLE    SUNNY     83  64  52 VRB5      30.00S
$$

ARZ022-023-033-042-044-252300-
CENTRAL ARKANSAS

CITY           SKY/WX    TMP DP  RH WIND       PRES   REMARKS
LITTLE ROCK    SUNNY     85  62  46 SW8       30.02S HX  85
N LITTLE ROCK  SUNNY     83  67  58 W3        30.02S HX  86
JACKSONVILLE   SUNNY     85  64  50 W7        30.02S HX  86
SEARCY         SUNNY     84  65  52 SW5       30.02F HX  86
HOT SPRINGS    SUNNY     83  64  52 SW7       30.05S
RUSSELLVILLE   SUNNY     84  64  50 W5        30.02F HX  85
$$

ARZ036-252300-
EAST ARKANSAS

CITY           SKY/WX    TMP DP  RH WIND       PRES   REMARKS
WEST MEMPHIS   SUNNY     82  64  54 SW6       30.00S
$$

ARZ050-053-066-070-073-252300-
SOUTHWEST ARKANSAS

CITY           SKY/WX    TMP DP  RH WIND       PRES   REMARKS
ARKADELPHIA    FAIR      82  66  58 SW8       30.05S
CAMDEN         SUNNY     84  63  48 NE5       30.05F HX  85
TEXARKANA      SUNNY     83  63  50 SW9       30.06F
EL DORADO      SUNNY     82  63  52 SW5       30.07S
DE QUEEN       SUNNY     83  64  52 SW6       30.03F
$$

ARZ056-057-069-252300-
SOUTHEAST ARKANSAS

CITY           SKY/WX    TMP DP  RH WIND       PRES   REMARKS
PINE BLUFF     SUNNY     81  64  56 SW9       30.04S
STUTTGART      SUNNY     84  63  48 SW9       30.04R HX  85
MONTICELLO     SUNNY     81  64  56 W5        30.05S

$$





USA.gov is the U.S. government's official web portal to all federal, state and local government web resources and services.